VKG342 LOWI-LCLK

Flight info

Callsign VKG342
Flight time N/A
Altitude 33000
Route RTT DCT BERTA/N0445F370 DCT LURID DCT SOMUN DCT NISVA N131 RODIP UN131 KULAR UT39 TOMBI M855 DASNI M601 BONEK
Aircraft A320/M-SDE3FGHIRWY/LB1

Departure

Time N/A
Airport Innsbruck Airport (LOWI)

Arrival

Time 2026-05-05 21:11
Airport Larnaca International Airport (LCLK)
Time Latitude Longitude Altitude Speed Heading
2026-05-05 18:21 47.41132 11.88201 13923 ft 381 kts 77°
2026-05-05 18:21 47.41532 11.92109 14434 ft 388 kts 88°
2026-05-05 18:22 47.41451 11.96117 15019 ft 393 kts 99°
2026-05-05 18:22 47.40840 12.00055 15584 ft 395 kts 111°
2026-05-05 18:22 47.39712 12.03756 16169 ft 397 kts 120°
2026-05-05 18:22 47.38438 12.07403 16792 ft 402 kts 120°
2026-05-05 18:23 47.37146 12.11081 17399 ft 406 kts 121°
2026-05-05 18:23 47.35837 12.14806 17920 ft 412 kts 120°
2026-05-05 18:23 47.34511 12.18583 18457 ft 417 kts 120°
2026-05-05 18:23 47.33172 12.22394 18921 ft 421 kts 121°
2026-05-05 18:24 47.31825 12.26230 19461 ft 422 kts 121°
2026-05-05 18:24 47.30470 12.30090 20008 ft 424 kts 121°
2026-05-05 18:24 47.29111 12.33955 20505 ft 426 kts 121°
2026-05-05 18:24 47.27741 12.37847 21015 ft 429 kts 121°
2026-05-05 18:25 47.26364 12.41758 21498 ft 431 kts 121°
2026-05-05 18:25 47.25446 12.44356 21838 ft 433 kts 121°
2026-05-05 18:25 47.23584 12.49611 22544 ft 433 kts 122°
2026-05-05 18:25 47.22201 12.53500 23078 ft 436 kts 122°
2026-05-05 18:26 47.20773 12.57509 23599 ft 438 kts 122°
2026-05-05 18:26 47.19375 12.61427 23937 ft 440 kts 122°
2026-05-05 18:26 47.17947 12.65427 24334 ft 444 kts 122°
2026-05-05 18:26 47.16510 12.69452 24667 ft 446 kts 122°
2026-05-05 18:27 47.15064 12.73498 25014 ft 448 kts 122°
2026-05-05 18:27 47.13607 12.77564 25388 ft 450 kts 122°
2026-05-05 18:27 47.12143 12.81641 25792 ft 453 kts 122°
2026-05-05 18:27 47.10667 12.85743 26155 ft 455 kts 121°
2026-05-05 18:28 47.07700 12.93985 26910 ft 459 kts 122°
2026-05-05 18:28 47.06207 12.98137 27241 ft 461 kts 121°
2026-05-05 18:28 47.04704 13.02307 27534 ft 464 kts 122°
2026-05-05 18:29 47.03192 13.06495 27866 ft 466 kts 122°
2026-05-05 18:29 47.01670 13.10694 28209 ft 468 kts 122°
2026-05-05 18:29 47.00136 13.14911 28546 ft 470 kts 122°
2026-05-05 18:29 46.98590 13.19151 28895 ft 472 kts 122°
2026-05-05 18:30 46.97043 13.23392 29351 ft 471 kts 122°
2026-05-05 18:30 46.95501 13.27615 29863 ft 469 kts 122°
2026-05-05 18:30 46.93986 13.31769 30327 ft 468 kts 122°
2026-05-05 18:30 46.92453 13.35968 30725 ft 467 kts 122°
2026-05-05 18:31 46.90920 13.40155 31106 ft 466 kts 122°
2026-05-05 18:31 46.89389 13.44324 31478 ft 465 kts 122°
2026-05-05 18:31 46.87856 13.48492 31846 ft 465 kts 122°
2026-05-05 18:31 46.86326 13.52651 32213 ft 465 kts 122°
2026-05-05 18:32 46.84792 13.56803 32606 ft 464 kts 122°
2026-05-05 18:32 46.83253 13.60953 32887 ft 466 kts 122°
2026-05-05 18:32 46.80164 13.69272 32962 ft 466 kts 122°
2026-05-05 18:33 46.77070 13.77610 32963 ft 466 kts 122°
2026-05-05 18:33 46.73991 13.85864 32950 ft 465 kts 122°
2026-05-05 18:34 46.70899 13.94147 32944 ft 466 kts 122°
2026-05-05 18:34 46.67781 14.02464 32956 ft 468 kts 122°
2026-05-05 18:35 46.64648 14.10788 32947 ft 469 kts 122°
2026-05-05 18:35 46.61510 14.19100 32948 ft 469 kts 122°
2026-05-05 18:36 46.58366 14.27404 32947 ft 469 kts 122°
2026-05-05 18:36 46.55217 14.35704 32952 ft 469 kts 122°
2026-05-05 18:37 46.52069 14.43993 32955 ft 469 kts 122°
2026-05-05 18:37 46.48931 14.52221 32958 ft 469 kts 122°
2026-05-05 18:38 46.45734 14.60533 32956 ft 469 kts 122°
2026-05-05 18:38 46.42409 14.68580 32987 ft 469 kts 126°
2026-05-05 18:39 46.38794 14.76441 32985 ft 469 kts 127°
2026-05-05 18:39 46.35744 14.82940 32976 ft 470 kts 127°
2026-05-05 18:40 46.32117 14.90815 32973 ft 470 kts 127°
2026-05-05 18:40 46.28533 14.98714 32985 ft 469 kts 126°
2026-05-05 18:41 46.24948 15.06595 32957 ft 469 kts 126°
2026-05-05 18:41 46.21348 15.14454 32977 ft 469 kts 126°
2026-05-05 18:42 46.17737 15.22286 32980 ft 469 kts 126°
2026-05-05 18:42 46.14118 15.30114 32968 ft 469 kts 126°
2026-05-05 18:43 46.10483 15.37975 32972 ft 471 kts 126°
2026-05-05 18:43 46.06840 15.45838 32974 ft 472 kts 126°
2026-05-05 18:44 46.03217 15.53641 32974 ft 472 kts 127°
2026-05-05 18:44 45.99563 15.61477 32974 ft 471 kts 127°
2026-05-05 18:45 45.95903 15.69297 32975 ft 471 kts 127°
2026-05-05 18:45 45.92230 15.77108 32976 ft 471 kts 127°
2026-05-05 18:46 45.88556 15.84913 32978 ft 471 kts 127°
2026-05-05 18:46 45.84884 15.92718 32975 ft 471 kts 127°
2026-05-05 18:47 45.81226 16.00451 32975 ft 472 kts 127°
2026-05-05 18:47 45.77533 16.08226 32975 ft 472 kts 127°
2026-05-05 18:48 45.73835 16.16003 32975 ft 472 kts 127°
2026-05-05 18:48 45.70136 16.23772 32989 ft 472 kts 127°
2026-05-05 18:49 45.66425 16.31536 32987 ft 473 kts 127°
2026-05-05 18:49 45.62702 16.39298 32983 ft 473 kts 127°
2026-05-05 18:50 45.58975 16.47048 32990 ft 473 kts 127°
2026-05-05 18:50 45.55241 16.54782 32989 ft 473 kts 127°
2026-05-05 18:51 45.51497 16.62520 32986 ft 476 kts 127°
2026-05-05 18:51 45.47746 16.70249 33105 ft 477 kts 127°
2026-05-05 18:52 45.45853 16.74145 33457 ft 477 kts 127°
2026-05-05 18:52 45.43967 16.78021 33812 ft 476 kts 127°
2026-05-05 18:52 45.42079 16.81894 34122 ft 475 kts 127°
2026-05-05 18:52 45.40195 16.85762 34413 ft 475 kts 127°
2026-05-05 18:53 45.38308 16.89634 34707 ft 474 kts 127°
2026-05-05 18:53 45.36450 16.93437 34916 ft 475 kts 127°
2026-05-05 18:53 45.34560 16.97300 35160 ft 476 kts 127°
2026-05-05 18:53 45.32666 17.01163 35424 ft 475 kts 127°
2026-05-05 18:54 45.30772 17.05017 35680 ft 475 kts 127°
2026-05-05 18:54 45.28881 17.08852 35936 ft 474 kts 127°
2026-05-05 18:54 45.26988 17.12692 36175 ft 474 kts 127°
2026-05-05 18:54 45.25105 17.16518 36442 ft 472 kts 127°
2026-05-05 18:55 45.23224 17.20339 36701 ft 471 kts 127°
2026-05-05 18:55 45.21345 17.24148 36889 ft 472 kts 127°
2026-05-05 18:55 45.17553 17.31793 36995 ft 475 kts 127°
2026-05-05 18:56 45.13803 17.39520 36994 ft 477 kts 121°
2026-05-05 18:56 45.11020 17.48074 36994 ft 479 kts 114°
2026-05-05 18:57 45.08367 17.56727 36998 ft 480 kts 114°
2026-05-05 18:57 45.05686 17.65407 36996 ft 481 kts 115°
2026-05-05 18:58 45.03022 17.74026 36998 ft 482 kts 115°
2026-05-05 18:58 45.00332 17.82701 37002 ft 482 kts 115°
2026-05-05 18:59 44.97639 17.91361 37011 ft 481 kts 114°
2026-05-05 18:59 44.94941 18.00015 37010 ft 481 kts 115°
2026-05-05 19:00 44.92232 18.08658 37007 ft 481 kts 115°
2026-05-05 19:00 44.89515 18.17292 36987 ft 482 kts 115°
2026-05-05 19:01 44.86810 18.25874 36991 ft 482 kts 115°
2026-05-05 19:01 44.84079 18.34501 36994 ft 482 kts 115°
2026-05-05 19:02 44.81341 18.43119 37005 ft 482 kts 115°
2026-05-05 19:02 44.78618 18.51679 37008 ft 482 kts 115°
2026-05-05 19:03 44.75875 18.60282 37018 ft 481 kts 115°
2026-05-05 19:03 44.73122 18.68871 37022 ft 481 kts 115°
2026-05-05 19:04 44.70363 18.77430 37023 ft 480 kts 115°
2026-05-05 19:04 44.67602 18.85986 37023 ft 480 kts 115°
2026-05-05 19:05 44.64838 18.94535 37024 ft 480 kts 115°
2026-05-05 19:05 44.62083 19.03015 37024 ft 480 kts 115°
2026-05-05 19:06 44.59226 19.11490 37020 ft 480 kts 121°
2026-05-05 19:06 44.55886 19.19583 37015 ft 479 kts 121°
2026-05-05 19:07 44.52539 19.27677 37021 ft 479 kts 121°
2026-05-05 19:07 44.49190 19.35755 37008 ft 479 kts 121°
2026-05-05 19:08 44.45833 19.43823 37002 ft 480 kts 121°
2026-05-05 19:08 44.42484 19.51833 37006 ft 480 kts 121°
2026-05-05 19:09 44.39115 19.59889 37009 ft 480 kts 121°
2026-05-05 19:09 44.35736 19.67937 37014 ft 480 kts 121°
2026-05-05 19:10 44.32348 19.75960 37013 ft 479 kts 121°
2026-05-05 19:10 44.28966 19.83973 37014 ft 478 kts 121°
2026-05-05 19:11 44.25590 19.91965 37007 ft 477 kts 121°
2026-05-05 19:11 44.22206 19.99928 37010 ft 477 kts 121°
2026-05-05 19:12 44.18821 20.07871 37002 ft 476 kts 121°
2026-05-05 19:12 44.15443 20.15800 36990 ft 476 kts 121°
2026-05-05 19:13 44.12078 20.23667 36983 ft 476 kts 121°
2026-05-05 19:13 44.08678 20.31573 36981 ft 476 kts 121°
2026-05-05 19:14 44.05278 20.39478 36983 ft 476 kts 121°
2026-05-05 19:14 44.01872 20.47371 36987 ft 476 kts 121°
2026-05-05 19:15 43.98453 20.55247 36983 ft 476 kts 121°
2026-05-05 19:15 43.95030 20.63111 36981 ft 476 kts 121°
2026-05-05 19:16 43.91613 20.70970 36985 ft 476 kts 121°
2026-05-05 19:16 43.88213 20.78785 36978 ft 476 kts 121°
2026-05-05 19:17 43.84781 20.86633 36972 ft 476 kts 121°
2026-05-05 19:17 43.81340 20.94463 36966 ft 476 kts 121°
2026-05-05 19:18 43.77895 21.02290 36965 ft 476 kts 121°
2026-05-05 19:18 43.74447 21.10110 36963 ft 476 kts 121°
2026-05-05 19:19 43.71008 21.17877 36962 ft 476 kts 121°
2026-05-05 19:19 43.67544 21.25678 36971 ft 476 kts 121°
2026-05-05 19:20 43.64074 21.33491 36968 ft 477 kts 121°
2026-05-05 19:20 43.60598 21.41302 36967 ft 477 kts 121°
2026-05-05 19:21 43.57109 21.49101 36968 ft 477 kts 121°
2026-05-05 19:21 43.53640 21.56839 36985 ft 477 kts 121°
2026-05-05 19:22 43.50141 21.64617 36980 ft 477 kts 121°
2026-05-05 19:22 43.46632 21.72381 36966 ft 477 kts 121°
2026-05-05 19:23 43.43121 21.80144 36964 ft 478 kts 121°
2026-05-05 19:23 43.39610 21.87906 36963 ft 478 kts 121°
2026-05-05 19:24 43.36095 21.95657 36963 ft 478 kts 122°
2026-05-05 19:24 43.32563 22.03402 36967 ft 478 kts 122°
2026-05-05 19:25 43.29029 22.11140 36970 ft 478 kts 122°
2026-05-05 19:25 43.25513 22.18827 36989 ft 479 kts 121°
2026-05-05 19:26 43.21959 22.26556 36998 ft 479 kts 121°
2026-05-05 19:26 43.18404 22.34278 37003 ft 479 kts 121°
2026-05-05 19:27 43.14845 22.41997 37026 ft 479 kts 121°
2026-05-05 19:27 43.11312 22.49640 37022 ft 480 kts 121°
2026-05-05 19:28 43.07734 22.57364 37017 ft 480 kts 121°
2026-05-05 19:28 43.04133 22.65085 37023 ft 481 kts 122°
2026-05-05 19:29 43.00529 22.72784 37037 ft 481 kts 121°
2026-05-05 19:29 42.96740 22.80224 37038 ft 481 kts 131°
2026-05-05 19:30 42.91938 22.86589 37035 ft 481 kts 137°
2026-05-05 19:30 42.87047 22.92836 37035 ft 481 kts 136°
2026-05-05 19:31 42.82165 22.99082 37038 ft 481 kts 136°
2026-05-05 19:31 42.77277 23.05315 37035 ft 481 kts 137°
2026-05-05 19:32 42.72377 23.11535 37037 ft 482 kts 137°
2026-05-05 19:32 42.68295 23.16706 37041 ft 482 kts 137°
2026-05-05 19:33 42.63383 23.22924 37065 ft 482 kts 136°
2026-05-05 19:33 42.58482 23.29119 37064 ft 482 kts 136°
2026-05-05 19:34 42.53567 23.35311 37051 ft 482 kts 137°
2026-05-05 19:35 42.46172 23.44591 37074 ft 483 kts 136°
2026-05-05 19:35 42.41233 23.50784 37074 ft 483 kts 136°
2026-05-05 19:36 42.36337 23.56924 37077 ft 483 kts 136°
2026-05-05 19:36 42.31549 23.62891 37083 ft 484 kts 137°
2026-05-05 19:37 42.26611 23.68981 37080 ft 484 kts 137°
2026-05-05 19:37 42.21577 23.75087 37092 ft 483 kts 137°
2026-05-05 19:38 42.16603 23.81104 37080 ft 483 kts 137°
2026-05-05 19:38 42.11604 23.87160 37091 ft 483 kts 137°
2026-05-05 19:39 42.06608 23.93216 37073 ft 483 kts 137°
2026-05-05 19:39 42.01606 23.99253 37077 ft 483 kts 137°
2026-05-05 19:40 41.96597 24.05280 37075 ft 483 kts 137°
2026-05-05 19:40 41.91590 24.11301 37086 ft 483 kts 137°
2026-05-05 19:41 41.86583 24.17306 37077 ft 483 kts 137°
2026-05-05 19:41 41.81571 24.23297 37071 ft 483 kts 137°
2026-05-05 19:42 41.76590 24.29252 37070 ft 483 kts 137°
2026-05-05 19:42 41.71569 24.35242 37064 ft 484 kts 137°
2026-05-05 19:43 41.66534 24.41228 37086 ft 484 kts 137°
2026-05-05 19:43 41.61498 24.47202 37090 ft 484 kts 137°
2026-05-05 19:44 41.56446 24.53181 37089 ft 484 kts 137°
2026-05-05 19:44 41.51401 24.59132 37093 ft 484 kts 137°
2026-05-05 19:45 41.46359 24.65082 37072 ft 484 kts 137°
2026-05-05 19:45 41.41304 24.71031 37071 ft 485 kts 137°
2026-05-05 19:46 41.36291 24.76950 37065 ft 485 kts 137°
2026-05-05 19:46 41.31256 24.82923 37059 ft 485 kts 137°
2026-05-05 19:47 41.26218 24.88882 37061 ft 485 kts 137°
2026-05-05 19:47 41.21157 24.94841 37050 ft 486 kts 137°
2026-05-05 19:48 41.16089 25.00793 37058 ft 486 kts 137°
2026-05-05 19:48 41.11024 25.06741 37067 ft 487 kts 137°
2026-05-05 19:49 41.05979 25.12651 37067 ft 487 kts 137°
2026-05-05 19:49 41.00881 25.18593 37070 ft 487 kts 137°
2026-05-05 19:50 40.95793 25.24519 37056 ft 487 kts 137°
2026-05-05 19:50 40.90700 25.30449 37051 ft 488 kts 137°
2026-05-05 19:51 40.85593 25.36379 37071 ft 489 kts 137°
2026-05-05 19:51 40.80472 25.42301 37058 ft 490 kts 137°
2026-05-05 19:52 40.75838 25.48874 37054 ft 489 kts 129°
2026-05-05 19:52 40.71435 25.55655 37053 ft 489 kts 129°
2026-05-05 19:53 40.66995 25.62468 37047 ft 490 kts 129°
2026-05-05 19:53 40.62536 25.69271 37064 ft 491 kts 129°
2026-05-05 19:54 40.58074 25.76066 37070 ft 491 kts 129°
2026-05-05 19:54 40.53609 25.82856 37071 ft 491 kts 129°
2026-05-05 19:55 40.49139 25.89643 37072 ft 491 kts 129°
2026-05-05 19:55 40.44640 25.96389 37080 ft 491 kts 129°
2026-05-05 19:56 40.40124 26.03113 37086 ft 490 kts 129°
2026-05-05 19:56 40.35623 26.09824 37080 ft 490 kts 129°
2026-05-05 19:57 40.31117 26.16519 37085 ft 490 kts 130°
2026-05-05 19:57 40.26604 26.23198 37086 ft 489 kts 130°
2026-05-05 19:58 40.22097 26.29878 37111 ft 489 kts 130°
2026-05-05 19:58 40.17590 26.36541 37108 ft 489 kts 130°
2026-05-05 19:59 40.13212 26.42987 37105 ft 489 kts 131°
2026-05-05 19:59 40.08539 26.49289 37105 ft 490 kts 134°
2026-05-05 20:00 40.03612 26.55430 37092 ft 490 kts 135°
2026-05-05 20:00 39.98778 26.61459 37105 ft 489 kts 135°
2026-05-05 20:01 39.94050 26.67508 37106 ft 489 kts 134°
2026-05-05 20:01 39.89209 26.73744 37103 ft 488 kts 134°
2026-05-05 20:02 39.84365 26.79940 37100 ft 488 kts 134°
2026-05-05 20:02 39.79489 26.86107 37100 ft 488 kts 135°
2026-05-05 20:03 39.74615 26.92250 37106 ft 488 kts 135°
2026-05-05 20:03 39.69680 26.98333 37093 ft 489 kts 136°
2026-05-05 20:04 39.64713 27.04368 37094 ft 489 kts 136°
2026-05-05 20:04 39.59783 27.10371 37095 ft 489 kts 136°
2026-05-05 20:05 39.54827 27.16433 37096 ft 490 kts 136°
2026-05-05 20:05 39.49904 27.22524 37105 ft 489 kts 131°
2026-05-05 20:06 39.45538 27.29269 37098 ft 489 kts 128°
2026-05-05 20:06 39.41212 27.36062 37093 ft 489 kts 128°
2026-05-05 20:07 39.36872 27.42841 37090 ft 489 kts 128°
2026-05-05 20:07 39.32525 27.49605 37110 ft 489 kts 128°
2026-05-05 20:08 39.28176 27.56370 37104 ft 489 kts 128°
2026-05-05 20:08 39.23826 27.63131 37100 ft 489 kts 128°
2026-05-05 20:09 39.19467 27.69879 37099 ft 489 kts 128°
2026-05-05 20:09 39.15107 27.76606 37095 ft 489 kts 128°
2026-05-05 20:10 39.10745 27.83340 37078 ft 489 kts 129°
2026-05-05 20:10 39.06380 27.90065 37084 ft 490 kts 129°
2026-05-05 20:11 39.02003 27.96795 37088 ft 490 kts 129°
2026-05-05 20:11 38.97620 28.03509 37088 ft 490 kts 129°
2026-05-05 20:12 38.93232 28.10216 37108 ft 490 kts 129°
2026-05-05 20:12 38.88854 28.16905 37110 ft 489 kts 129°
2026-05-05 20:13 38.84480 28.23570 37107 ft 488 kts 129°
2026-05-05 20:13 38.80105 28.30221 37088 ft 488 kts 129°
2026-05-05 20:14 38.75732 28.36856 37090 ft 488 kts 129°
2026-05-05 20:14 38.71344 28.43486 37105 ft 487 kts 129°
2026-05-05 20:15 38.66956 28.50102 37104 ft 487 kts 129°
2026-05-05 20:15 38.62579 28.56713 37106 ft 487 kts 129°
2026-05-05 20:16 38.58049 28.63152 37101 ft 487 kts 138°
2026-05-05 20:16 38.52615 28.68298 37114 ft 486 kts 146°
2026-05-05 20:17 38.48232 28.72210 37087 ft 486 kts 146°
2026-05-05 20:17 38.41689 28.78073 37085 ft 487 kts 146°
2026-05-05 20:18 38.36145 28.83032 37093 ft 487 kts 146°
2026-05-05 20:18 38.31496 28.87178 37092 ft 487 kts 146°
2026-05-05 20:19 38.25940 28.92118 37091 ft 487 kts 146°
2026-05-05 20:19 38.20373 28.97046 37092 ft 487 kts 146°
2026-05-05 20:20 38.14805 29.01979 37088 ft 488 kts 146°
2026-05-05 20:20 38.09233 29.06909 37087 ft 488 kts 146°
2026-05-05 20:21 38.03646 29.11835 37089 ft 489 kts 146°
2026-05-05 20:21 37.98055 29.16747 37091 ft 489 kts 146°
2026-05-05 20:22 37.92501 29.21631 37078 ft 489 kts 146°
2026-05-05 20:22 37.86906 29.26554 37086 ft 490 kts 146°
2026-05-05 20:23 37.81307 29.31468 37096 ft 490 kts 147°
2026-05-05 20:23 37.75691 29.36370 37098 ft 490 kts 147°
2026-05-05 20:24 37.70080 29.41271 37096 ft 490 kts 147°
2026-05-05 20:24 37.64467 29.46162 37088 ft 490 kts 147°
2026-05-05 20:25 37.58849 29.51051 37088 ft 491 kts 147°
2026-05-05 20:25 37.53228 29.55940 37096 ft 491 kts 147°
2026-05-05 20:26 37.47607 29.60807 37103 ft 491 kts 147°
2026-05-05 20:26 37.41976 29.65678 37103 ft 491 kts 147°
2026-05-05 20:27 37.36652 29.70324 37087 ft 491 kts 146°
2026-05-05 20:27 37.31035 29.75222 37087 ft 491 kts 147°
2026-05-05 20:28 37.25407 29.79993 37094 ft 492 kts 147°
2026-05-05 20:28 37.20723 29.83934 37093 ft 490 kts 149°
2026-05-05 20:29 37.15226 29.88470 37102 ft 491 kts 147°
2026-05-05 20:29 37.09643 29.93412 37094 ft 491 kts 146°
2026-05-05 20:30 37.04042 29.98344 37087 ft 491 kts 147°
2026-05-05 20:30 36.98535 30.03068 37088 ft 491 kts 147°
2026-05-05 20:31 36.92868 30.07860 37076 ft 491 kts 147°
2026-05-05 20:31 36.87222 30.12653 37081 ft 491 kts 148°
2026-05-05 20:32 36.81580 30.17452 37057 ft 490 kts 148°
2026-05-05 20:32 36.75944 30.22246 37063 ft 490 kts 148°
2026-05-05 20:33 36.70303 30.27027 37072 ft 490 kts 148°
2026-05-05 20:33 36.64664 30.31779 37054 ft 489 kts 148°
2026-05-05 20:34 36.59024 30.36531 37047 ft 489 kts 148°
2026-05-05 20:34 36.53383 30.41278 37046 ft 489 kts 148°
2026-05-05 20:35 36.47748 30.46014 37040 ft 489 kts 148°
2026-05-05 20:35 36.42110 30.50752 37039 ft 489 kts 148°
2026-05-05 20:36 36.36475 30.55470 37031 ft 489 kts 148°
2026-05-05 20:36 36.30836 30.60181 37030 ft 489 kts 148°
2026-05-05 20:37 36.25227 30.64861 37007 ft 489 kts 148°
2026-05-05 20:37 36.19579 30.69558 37012 ft 490 kts 148°
2026-05-05 20:38 36.13912 30.74250 37018 ft 490 kts 148°
2026-05-05 20:38 36.08238 30.78921 37021 ft 489 kts 152°
2026-05-05 20:39 36.02026 30.82145 36690 ft 480 kts 171°
2026-05-05 20:39 35.98756 30.82782 36435 ft 474 kts 181°
2026-05-05 20:39 35.95466 30.83002 36184 ft 474 kts 181°
2026-05-05 20:39 35.92161 30.83197 35943 ft 474 kts 182°
2026-05-05 20:40 35.88853 30.83381 35697 ft 474 kts 182°
2026-05-05 20:40 35.85556 30.83566 35455 ft 475 kts 182°
2026-05-05 20:40 35.82288 30.83755 35214 ft 475 kts 182°
2026-05-05 20:40 35.78982 30.83951 34990 ft 476 kts 182°
2026-05-05 20:41 35.75674 30.84151 35029 ft 476 kts 182°
2026-05-05 20:41 35.69055 30.84831 35027 ft 483 kts 170°
2026-05-05 20:41 35.65876 30.86214 35026 ft 490 kts 155°
2026-05-05 20:42 35.63018 30.88535 35029 ft 495 kts 140°
2026-05-05 20:42 35.60702 30.91671 35027 ft 498 kts 124°
2026-05-05 20:42 35.59080 30.95418 35031 ft 498 kts 109°
2026-05-05 20:43 35.56988 31.03524 35033 ft 498 kts 106°
2026-05-05 20:43 35.54923 31.11650 35036 ft 498 kts 107°
2026-05-05 20:44 35.52850 31.19776 35034 ft 498 kts 107°
2026-05-05 20:44 35.50778 31.27898 35034 ft 498 kts 107°
2026-05-05 20:45 35.47663 31.40077 35032 ft 498 kts 107°
2026-05-05 20:45 35.45569 31.48187 35034 ft 498 kts 107°
2026-05-05 20:46 35.43486 31.56240 35037 ft 499 kts 107°
2026-05-05 20:46 35.41383 31.64351 35039 ft 499 kts 107°
2026-05-05 20:47 35.39273 31.72452 34717 ft 499 kts 107°
2026-05-05 20:47 35.38215 31.76507 34480 ft 499 kts 107°
2026-05-05 20:47 35.37158 31.80555 34254 ft 499 kts 107°
2026-05-05 20:48 35.36099 31.84607 34018 ft 499 kts 107°
2026-05-05 20:48 35.35038 31.88659 33751 ft 500 kts 107°
2026-05-05 20:48 35.33976 31.92716 33480 ft 500 kts 107°
2026-05-05 20:48 35.32910 31.96781 32610 ft 503 kts 108°
2026-05-05 20:49 35.31829 32.00904 31323 ft 513 kts 108°
2026-05-05 20:49 35.30726 32.05094 30205 ft 519 kts 108°
2026-05-05 20:49 35.29622 32.09282 29241 ft 516 kts 108°
2026-05-05 20:49 35.28524 32.13466 27945 ft 513 kts 108°
2026-05-05 20:50 35.27448 32.17588 26762 ft 501 kts 108°
2026-05-05 20:50 35.26759 32.20231 26461 ft 483 kts 108°
2026-05-05 20:50 35.25425 32.25351 25483 ft 465 kts 109°
2026-05-05 20:50 35.24441 32.29101 24755 ft 464 kts 109°
2026-05-05 20:51 35.23453 32.32855 24041 ft 462 kts 109°
2026-05-05 20:51 35.22466 32.36591 23287 ft 461 kts 109°
2026-05-05 20:51 35.21497 32.40257 22588 ft 457 kts 109°
2026-05-05 20:51 35.20523 32.43938 21926 ft 453 kts 109°
2026-05-05 20:52 35.19562 32.47579 21302 ft 448 kts 109°
2026-05-05 20:52 35.18608 32.51194 20682 ft 444 kts 109°
2026-05-05 20:52 35.17662 32.54777 20079 ft 440 kts 109°
2026-05-05 20:52 35.16723 32.58312 19508 ft 436 kts 109°
2026-05-05 20:53 35.15791 32.61816 18945 ft 432 kts 109°
2026-05-05 20:53 35.14866 32.65284 18425 ft 427 kts 109°
2026-05-05 20:53 35.13951 32.68712 17859 ft 422 kts 109°
2026-05-05 20:53 35.13047 32.72099 17337 ft 416 kts 109°
2026-05-05 20:54 35.12151 32.75440 16847 ft 411 kts 109°
2026-05-05 20:54 35.11266 32.78744 16327 ft 407 kts 109°
2026-05-05 20:54 35.10388 32.82013 15809 ft 404 kts 109°
2026-05-05 20:54 35.09515 32.85269 15272 ft 401 kts 109°
2026-05-05 20:55 35.08650 32.88487 14728 ft 398 kts 109°
2026-05-05 20:55 35.07789 32.91690 14173 ft 396 kts 109°
2026-05-05 20:55 35.06926 32.94877 13563 ft 394 kts 109°
2026-05-05 20:55 35.06039 32.98038 12968 ft 391 kts 110°
2026-05-05 20:56 35.05143 33.01154 12352 ft 387 kts 110°
2026-05-05 20:56 35.04256 33.04202 11754 ft 384 kts 110°
2026-05-05 20:56 35.03359 33.07278 11125 ft 381 kts 109°
2026-05-05 20:56 35.02482 33.10297 10828 ft 369 kts 109°
2026-05-05 20:57 35.01645 33.13184 10702 ft 353 kts 109°
2026-05-05 20:57 35.00845 33.15951 10572 ft 338 kts 109°
2026-05-05 20:57 35.00080 33.18601 10449 ft 325 kts 109°
2026-05-05 20:57 34.99342 33.21158 10329 ft 313 kts 109°
2026-05-05 20:58 34.98631 33.23624 10164 ft 304 kts 109°
2026-05-05 20:58 34.97943 33.26001 10002 ft 298 kts 109°
2026-05-05 20:58 34.97252 33.28388 9706 ft 301 kts 109°
2026-05-05 20:58 34.96555 33.30795 9325 ft 299 kts 109°
2026-05-05 20:59 34.95865 33.33171 8941 ft 297 kts 109°
2026-05-05 20:59 34.95178 33.35530 8560 ft 294 kts 109°
2026-05-05 20:59 34.94497 33.37872 8176 ft 291 kts 108°
2026-05-05 20:59 34.93825 33.40187 7799 ft 289 kts 108°
2026-05-05 21:00 34.93156 33.42482 7427 ft 286 kts 108°
2026-05-05 21:00 34.92494 33.44755 7049 ft 283 kts 108°
2026-05-05 21:00 34.91839 33.47005 6667 ft 280 kts 108°
2026-05-05 21:00 34.91189 33.49236 6273 ft 278 kts 108°
2026-05-05 21:01 34.90543 33.51446 5870 ft 276 kts 108°
2026-05-05 21:01 34.89892 33.53677 5142 ft 285 kts 108°
2026-05-05 21:01 34.89216 33.55986 4479 ft 291 kts 109°
2026-05-05 21:01 34.88766 33.57516 4304 ft 285 kts 109°
2026-05-05 21:02 34.88116 33.59734 4145 ft 271 kts 108°
2026-05-05 21:02 34.87865 33.61927 4024 ft 256 kts 82°
2026-05-05 21:02 34.88352 33.63923 4003 ft 237 kts 68°
2026-05-05 21:02 34.88954 33.65719 4005 ft 221 kts 66°
2026-05-05 21:03 34.89526 33.67381 4004 ft 205 kts 67°
2026-05-05 21:03 34.90056 33.68925 4003 ft 190 kts 66°
2026-05-05 21:03 34.90554 33.70384 4004 ft 185 kts 67°
2026-05-05 21:03 34.91045 33.71829 4006 ft 184 kts 66°
2026-05-05 21:04 34.91523 33.73239 4020 ft 175 kts 66°
2026-05-05 21:04 34.91967 33.74559 4015 ft 164 kts 66°
2026-05-05 21:04 34.92393 33.75835 4009 ft 162 kts 66°
2026-05-05 21:04 34.92818 33.77102 4013 ft 162 kts 66°
2026-05-05 21:05 34.93245 33.78373 4011 ft 162 kts 67°
2026-05-05 21:05 34.93669 33.79651 4011 ft 163 kts 66°
2026-05-05 21:05 34.94091 33.80932 4009 ft 163 kts 68°
2026-05-05 21:05 34.94554 33.82187 4010 ft 162 kts 54°
2026-05-05 21:06 34.95399 33.83041 4021 ft 159 kts 19°
2026-05-05 21:06 34.96474 33.83115 4010 ft 156 kts 342°
2026-05-05 21:06 34.97363 33.82419 3831 ft 153 kts 307°
2026-05-05 21:06 34.97743 33.81227 3577 ft 154 kts 272°
2026-05-05 21:07 34.97577 33.79951 3345 ft 153 kts 257°
2026-05-05 21:07 34.97343 33.78706 3067 ft 150 kts 257°
2026-05-05 21:07 34.97111 33.77459 2709 ft 151 kts 257°
2026-05-05 21:07 34.96881 33.76217 2373 ft 149 kts 257°
2026-05-05 21:08 34.96654 33.74991 2065 ft 147 kts 258°
2026-05-05 21:08 34.96377 33.73804 2009 ft 147 kts 249°
2026-05-05 21:08 34.95780 33.72782 1915 ft 150 kts 230°
2026-05-05 21:08 34.95069 33.71859 1780 ft 149 kts 230°
2026-05-05 21:09 34.94348 33.70950 1602 ft 149 kts 227°
2026-05-05 21:09 34.93608 33.70032 1423 ft 152 kts 226°
2026-05-05 21:09 34.92861 33.69113 1230 ft 152 kts 227°
2026-05-05 21:09 34.92116 33.68198 1042 ft 151 kts 226°
2026-05-05 21:10 34.91383 33.67300 860 ft 151 kts 226°
2026-05-05 21:10 34.90642 33.66393 678 ft 150 kts 227°
2026-05-05 21:10 34.89907 33.65493 483 ft 149 kts 227°
2026-05-05 21:10 34.89177 33.64600 315 ft 149 kts 228°
2026-05-05 21:11 34.88445 33.63707 101 ft 145 kts 227°
2026-05-05 21:11 34.87732 33.62835 49 ft 146 kts 228°
2026-05-05 21:11 34.87107 33.62063 16 ft 94 kts 224°
2026-05-05 21:11 34.86843 33.61749 15 ft 28 kts 224°
2026-05-05 21:12 34.86699 33.61575 15 ft 30 kts 225°
2026-05-05 21:12 34.86561 33.61385 16 ft 30 kts 239°
2026-05-05 21:12 34.86485 33.61144 19 ft 31 kts 255°
2026-05-05 21:12 34.86440 33.60922 16 ft 13 kts 256°
2026-05-05 21:13 34.86471 33.60812 16 ft 20 kts 348°
2026-05-05 21:13 34.86570 33.60909 16 ft 2 kts 43°
2026-05-05 21:13 34.86605 33.60949 18 ft 1 kts 43°
2026-05-05 21:13 34.86651 33.61001 16 ft 10 kts 40°
2026-05-05 21:14 34.86734 33.60955 16 ft 14 kts 329°
2026-05-05 21:14 34.86778 33.61045 16 ft 17 kts 118°
2026-05-05 21:14 34.86810 33.61168 16 ft 14 kts 60°
2026-05-05 21:14 34.86854 33.61241 15 ft 10 kts 46°
2026-05-05 21:15 34.86908 33.61286 15 ft 9 kts 17°
2026-05-05 21:15 34.86965 33.61277 15 ft 8 kts 335°
2026-05-05 21:15 34.87011 33.61229 15 ft 9 kts 317°
2026-05-05 21:15 34.87056 33.61173 15 ft 10 kts 314°
2026-05-05 21:16 34.87106 33.61111 15 ft 11 kts 314°
2026-05-05 21:16 34.87113 33.61028 16 ft 12 kts 224°
2026-05-05 21:16 34.87075 33.61007 15 ft 3 kts 209°
2026-05-05 21:16 34.87074 33.61005 15 ft 0 kts 219°